Weather History for KCSQ - March, 2014

Change the Weather History Date:

Saturday, March 1, 2014

  Actual Average Record
Temperature  
Mean Temperature 8 °F -  
Max Temperature 19 °F 45 °F 75 °F (1992)
Min Temperature -2 °F 24 °F -6 °F (1980)
Degree Days  
Heating Degree Days 56    
Moisture  
Dew Point -1 °F    
Average Humidity 72    
Maximum Humidity 86    
Minimum Humidity 66    
Precipitation  
Precipitation 0.00 in - - ()
Sea Level Pressure  
Sea Level Pressure 30.29 in    
Wind  
Wind Speed 17 mph (North)    
Max Wind Speed 22 mph    
Max Gust Speed 28 mph    
Visibility 8 miles    
Events Rain , Snow    
Averages and records for this station are not official NWS values.
T = Trace of Precipitation, MM = Missing Value Source: NWS Daily Summary

Daily Weather History Graph

Daily Weather History Graph

Search for Another Location

Airport or City:

Trip Planner

Search our weather history database for the weather conditions in past years. The results will help you decide how hot, cold, wet, or windy it might be!

Date:

Astronomy

Mar. 01, 2014 Rise Set
Actual Time 6:51 AM CST 6:08 PM CST
Civil Twilight 6:24 AM CST 6:36 PM CST
Nautical Twilight 5:52 AM CST 7:08 PM CST
Astronomical Twilight 5:20 AM CST 7:39 PM CST
Moon 6:45 AM CST (3/1) 6:57 PM CST (3/1)
Length of Visible Light 12h 12m
Length of Day
11h 16m
New Moon, 0% of the Moon is Illuminated
Mar 1
New Moon
Mar 8
First Quarter
Mar 16
Full
Mar 23
Last Quarter
Mar 30
New

Hourly Weather History & Observations

Time (CST) Temp. Windchill Dew Point Humidity Pressure Visibility Wind Dir Wind Speed Gust Speed Precip Events Conditions
12:15 AM 19.4 °F 6.0 °F 15.8 °F 86% 30.09 in 10.0 mi North 13.8 mph - N/A   Light Freezing Rain
12:35 AM 19.4 °F 5.5 °F 14.0 °F 80% 30.09 in - North 15.0 mph - N/A   Light Freezing Rain
12:55 AM 19.4 °F 5.0 °F 14.0 °F 80% 30.10 in 10.0 mi North 16.1 mph - N/A   Overcast
1:15 AM 19.4 °F 4.1 °F 14.0 °F 80% 30.11 in 10.0 mi North 18.4 mph - N/A   Overcast
1:35 AM 19.4 °F 5.0 °F 14.0 °F 80% 30.11 in 10.0 mi North 16.1 mph - N/A   Overcast
1:55 AM 19.4 °F 5.0 °F 14.0 °F 80% 30.12 in 10.0 mi North 16.1 mph 23.0 mph N/A   Overcast
2:15 AM 19.4 °F 6.0 °F 14.0 °F 80% 30.13 in 9.0 mi North 13.8 mph 21.9 mph N/A Snow Light Snow
2:35 AM 17.6 °F 1.7 °F 12.2 °F 79% 30.13 in 7.0 mi North 18.4 mph 26.5 mph N/A   Overcast
2:55 AM 15.8 °F -1.5 °F 10.4 °F 79% 30.12 in 10.0 mi North 20.7 mph 26.5 mph N/A   Overcast
3:15 AM 15.8 °F -1.1 °F 6.8 °F 68% 30.14 in 9.0 mi North 19.6 mph 26.5 mph N/A   Mostly Cloudy
3:35 AM 14.0 °F -3.9 °F 6.8 °F 73% 30.14 in 10.0 mi North 20.7 mph - N/A   Overcast
3:55 AM 12.2 °F -3.1 °F 5.0 °F 73% 30.15 in 9.0 mi North 13.8 mph 26.5 mph N/A   Overcast
4:15 AM 12.2 °F -4.3 °F 5.0 °F 73% 30.14 in 10.0 mi North 16.1 mph 25.3 mph N/A Snow Light Snow
4:35 AM 12.2 °F -4.8 °F 5.0 °F 73% 30.17 in 10.0 mi NNE 17.3 mph - N/A   Overcast
4:55 AM 10.4 °F -6.0 °F 1.4 °F 67% 30.19 in 10.0 mi North 15.0 mph 21.9 mph N/A   Overcast
5:15 AM 10.4 °F -7.2 °F 1.4 °F 67% 30.20 in 10.0 mi North 17.3 mph 23.0 mph N/A   Overcast
5:35 AM 10.4 °F -6.6 °F 1.4 °F 67% 30.22 in 10.0 mi North 16.1 mph - N/A   Overcast
5:55 AM 10.4 °F -7.2 °F 1.4 °F 67% 30.22 in 10.0 mi North 17.3 mph 24.2 mph N/A   Overcast
6:15 AM 8.6 °F -10.5 °F -0.4 °F 67% 30.24 in 10.0 mi North 19.6 mph - N/A   Overcast
6:35 AM 8.6 °F -10.0 °F -0.4 °F 67% 30.24 in 10.0 mi North 18.4 mph - N/A   Overcast
6:55 AM 8.6 °F -9.5 °F -0.4 °F 67% 30.24 in 10.0 mi North 17.3 mph - N/A   Overcast
7:15 AM 8.6 °F -9.5 °F -0.4 °F 67% 30.23 in 10.0 mi North 17.3 mph - N/A   Overcast
7:35 AM 6.8 °F -11.3 °F -0.4 °F 72% 30.24 in 10.0 mi North 16.1 mph 24.2 mph N/A   Overcast
7:55 AM 6.8 °F -11.8 °F -0.4 °F 72% 30.24 in 10.0 mi North 17.3 mph - N/A   Overcast
8:15 AM 6.8 °F -13.8 °F -0.4 °F 72% 30.24 in 10.0 mi NNE 21.9 mph - N/A   Overcast
8:35 AM 6.8 °F -10.7 °F -0.4 °F 72% 30.26 in 10.0 mi North 15.0 mph 21.9 mph N/A   Overcast
8:55 AM 6.8 °F -12.4 °F -0.4 °F 72% 30.28 in 10.0 mi North 18.4 mph - N/A   Overcast
9:15 AM 6.8 °F -12.9 °F -0.4 °F 72% 30.32 in 10.0 mi North 19.6 mph - N/A   Overcast
9:35 AM 6.8 °F -11.3 °F -2.2 °F 67% 30.32 in - North 16.1 mph 23.0 mph N/A   Overcast
9:55 AM 6.8 °F -12.4 °F -0.4 °F 72% 30.33 in 9.0 mi North 18.4 mph - N/A   Overcast
10:15 AM 6.8 °F -12.4 °F -2.2 °F 67% 30.33 in 10.0 mi North 18.4 mph 24.2 mph N/A   Overcast
10:35 AM 6.8 °F -13.4 °F -0.4 °F 72% 30.34 in 9.0 mi North 20.7 mph - N/A   Overcast
10:55 AM 6.8 °F -11.8 °F -2.2 °F 67% 30.33 in 10.0 mi NNE 17.3 mph - N/A   Overcast
11:15 AM 6.8 °F -11.8 °F -2.2 °F 67% 30.32 in 10.0 mi North 17.3 mph - N/A   Overcast
11:35 AM 6.8 °F -12.9 °F -2.2 °F 67% 30.34 in 9.0 mi North 19.6 mph - N/A   Overcast
11:55 AM 6.8 °F -13.8 °F -2.2 °F 67% 30.33 in 10.0 mi North 21.9 mph - N/A   Overcast
12:15 PM 5.0 °F -14.7 °F -2.2 °F 72% 30.31 in 10.0 mi NNE 18.4 mph 25.3 mph N/A   Overcast
12:35 PM 5.0 °F -13.6 °F -2.2 °F 72% 30.31 in 5.0 mi NNE 16.1 mph 24.2 mph N/A   Haze
12:55 PM 5.0 °F -13.0 °F -2.2 °F 72% 30.32 in 9.0 mi NNE 15.0 mph 20.7 mph N/A   Overcast
1:15 PM 5.0 °F -13.6 °F -2.2 °F 72% 30.32 in 10.0 mi NNE 16.1 mph - N/A   Overcast
1:35 PM 5.0 °F -14.7 °F -2.2 °F 72% 30.31 in 9.0 mi North 18.4 mph - N/A   Overcast
1:55 PM 5.0 °F -14.2 °F -2.2 °F 72% 30.32 in 6.0 mi NNE 17.3 mph - N/A   Haze
2:15 PM 5.0 °F -13.0 °F -2.2 °F 72% 30.33 in 9.0 mi North 15.0 mph 25.3 mph N/A   Overcast
2:35 PM 5.0 °F -15.7 °F -2.2 °F 72% 30.31 in 8.0 mi NNE 20.7 mph - N/A   Overcast
2:55 PM 5.0 °F -14.2 °F -2.2 °F 72% 30.33 in 6.0 mi North 17.3 mph - N/A Snow Light Snow
3:15 PM 5.0 °F -14.7 °F -2.2 °F 72% 30.33 in 6.0 mi NNE 18.4 mph 24.2 mph N/A Snow Light Snow
3:35 PM 5.0 °F -11.6 °F -2.2 °F 72% 30.34 in 9.0 mi North 12.7 mph 24.2 mph N/A   Overcast
3:55 PM 5.0 °F -14.7 °F -4.0 °F 66% 30.33 in 8.0 mi NNE 18.4 mph - N/A   Overcast
4:15 PM 3.2 °F -17.6 °F -4.0 °F 72% 30.33 in 10.0 mi North 19.6 mph - N/A   Overcast
4:30 PM 3.2 °F -17.1 °F -4.0 °F 72% 30.34 in 9.0 mi North 18.4 mph - N/A   Overcast
4:55 PM 3.2 °F -18.1 °F -4.0 °F 72% 30.32 in 5.0 mi North 20.7 mph 26.5 mph N/A Snow Light Snow
5:15 PM 3.2 °F -17.1 °F -4.0 °F 72% 30.33 in 8.0 mi NNE 18.4 mph 24.2 mph N/A   Overcast
5:35 PM 3.2 °F -17.1 °F -4.0 °F 72% 30.34 in 4.0 mi NNE 18.4 mph 24.2 mph N/A Snow Light Snow
5:55 PM 1.4 °F -19.9 °F -5.8 °F 72% 30.35 in 2.5 mi NNE 19.6 mph 26.5 mph N/A Snow Light Snow
6:15 PM 1.4 °F -19.9 °F -5.8 °F 72% 30.37 in 1.5 mi NNE 19.6 mph 26.5 mph N/A Snow Light Snow
6:35 PM 1.4 °F -19.4 °F -5.8 °F 72% 30.36 in 1.8 mi NNE 18.4 mph 25.3 mph N/A Snow Light Snow
6:55 PM 1.4 °F -18.2 °F -5.8 °F 72% 30.37 in 1.8 mi North 16.1 mph 23.0 mph N/A Snow Light Snow
7:15 PM 1.4 °F -19.9 °F -5.8 °F 72% 30.38 in 2.0 mi North 19.6 mph 25.3 mph N/A Snow Light Snow
7:35 PM 1.4 °F -19.9 °F -5.8 °F 72% 30.38 in 3.0 mi North 19.6 mph 25.3 mph N/A Snow Light Snow
7:55 PM -0.4 °F -22.3 °F -7.6 °F 72% 30.38 in 7.0 mi North 19.6 mph 25.3 mph N/A Snow Light Snow
8:15 PM -0.4 °F -22.3 °F -7.6 °F 72% 30.37 in 5.0 mi North 19.6 mph 27.6 mph N/A Snow Light Snow
8:35 PM -0.4 °F -22.3 °F -7.6 °F 72% 30.38 in 1.2 mi North 19.6 mph - N/A Snow Light Snow
8:55 PM -0.4 °F -19.9 °F -7.6 °F 72% 30.40 in 1.0 mi NNE 15.0 mph - N/A Snow Light Snow
9:15 PM -0.4 °F -19.2 °F -7.6 °F 72% 30.42 in 1.5 mi North 13.8 mph - N/A Snow Light Snow
9:35 PM -0.4 °F -21.2 °F -7.6 °F 72% 30.42 in 3.0 mi North 17.3 mph - N/A Snow Light Snow
9:55 PM -0.4 °F -19.2 °F -7.6 °F 72% 30.43 in 4.0 mi North 13.8 mph 20.7 mph N/A Snow Light Snow
10:15 PM -0.4 °F -20.5 °F -7.6 °F 72% 30.43 in 2.5 mi North 16.1 mph 23.0 mph N/A Snow Light Snow
10:35 PM -0.4 °F -20.5 °F -9.4 °F 66% 30.42 in 4.0 mi North 16.1 mph 26.5 mph N/A Snow Light Snow
10:55 PM -0.4 °F -19.9 °F -9.4 °F 66% 30.42 in 6.0 mi North 15.0 mph 23.0 mph N/A Rain Light Freezing Rain
11:15 PM -0.4 °F -21.2 °F -9.4 °F 66% 30.42 in 9.0 mi North 17.3 mph 26.5 mph N/A   Overcast
11:35 PM -2.2 °F -24.1 °F -9.4 °F 71% 30.42 in 10.0 mi North 18.4 mph - N/A   Overcast
11:55 PM -2.2 °F -22.9 °F -9.4 °F 71% 30.43 in 4.0 mi North 16.1 mph 27.6 mph N/A Rain Light Freezing Rain